STARLINK-1678, 46538

Orbit data source: Space-Track

STARLINK-1678, 46538 is a payload satellite owned by SpaceX/Seattle (US) in LEO that was launched on Tue, 06 Oct 2020 UTC via an FALCON 9 launch vehicle from the Air Force Eastern Test Range (AFETR). Payload-class satellites include a variety of spacecraft equipped with specific instruments for various scientific and technological missions. These include communications satellites like Starlink; space stations such as the ISS; scientific satellites like the Hubble; Earth observation satellites from companies like Planet Labs, Umbra, and HawkEye 360; GPS; miniature CubeSats for education and research; and military/defense satellites.

Loading next visibility...
Identifier
46538, 2020-070G
Orbit
LEO
Country
Flag of USUS
Related business
Manufacturer
SpaceX/Seattle
Mission
Partially operational Commercial Communications
Bus & Motor
STARLINK, Unknown motor
Mass
260 kg wet, ~248 kg dry
Launch date (UTC)
2020-10-06 (6 years ago)
Launch vehicle
FALCON 9
Launch site
Air Force Eastern Test Range (AFETR)
Object type
Payload
Rocket body
Debris
Shape & HBR
Box + 1 Pan, 10.1 m
Radar Cross Section
13.562 m², Large (>1 m²)

Expand to show TLE details & history
Last TLE update: 5 hours ago

TLE from 5 hours ago
0 STARLINK-1678
1 46538U 20070G   26124.47773669  .00132577  00000-0  84957-3 0  9990
2 46538  53.0376 196.1082 0007337 358.8677   1.2324 15.75365444309179
Epoch: 2026-05-04T11:27Z
TLE epoch observation values (Epoch: 2026-05-04T11:27:56.450Z)
Latitude
0.00001°
Longitude
161.75664°
Altitude
339.565 km
Speed
7.709 km/s
True Right ascension
13h 04m 25s
True Declination
0° 00' 00"
Sunlit
Object was in full shadow at epoch
Visualization orbit readout
Latitude
Unknown
Longitude
Unknown
Altitude
Unknown
Speed
Unknown
Apparent Right ascension
Unknown
Apparent Declination
Unknown
Sunlit
N/A
Visualization observer readout
Local Sidereal Time
00:10:04
Azimuth
Unknown
Elevation
Unknown
Doppler factor
Unknown
Orbital elements
Apogee altitude
348.805 km
Perigee altitude
338.941 km
Semi-major axis
6,722.01 km
Eccentricity
0.00073
Inclination
53.0376°
RAAN
196.1082°
Arg. of periapsis
358.8677°
True anomaly
1.23421°
Mean anomaly
1.2324°
Eccentric anomaly
1.2333°
Mean motion
3.93817 °/min
Orbital period
91.41 mins
BSTAR
0.00084957
Loading maneuver chart data...
Computing Atmospheric mass density...
Loading historical data...
Loading historical data...
Loading historical data...
Loading historical data...
Loading historical data...
Loading historical data...
Loading historical data...

Documentation

Showing up to 5 results
|